GLOBALSTAR M049 [-]

Last updated on July 6, 2021, 3:36 p.m. UTC

1 25771U 99031B   21186.81561917  .00000019  00000-0  29228-2 0  9995
2 25771  51.9838 222.8117 0002706 145.1429 214.9545 11.12088128956947
UTC
Height (km)
Latitude
Longitude
Inclination
Orbital Period
UTC large
Height (km)
Speed (km/s)
/
Latitude / Longitude
Inclination (degrees)
Orbital Period (minutes)
Azimuth
Elevation
Range (km)
Doppler Factor
iOS Compass Heading
iOS Angle